AO-07 1 07530U 74089B 17047.17792103 -.00000028 00000-0 98472-4 0 9997 2 07530 101.6144 18.3268 0011870 195.7705 233.7580 12.53625490933698 UO-11 1 14781U 84021B 17047.18008274 .00000069 00000-0 14855-4 0 9997 2 14781 97.7153 97.2417 0007400 229.6890 130.3678 14.82857367772412 LO-19 1 20442U 90005G 17047.05769714 -.00000001 00000-0 15803-4 0 9997 2 20442 98.5667 344.8660 0012424 141.2341 218.9737 14.32848448414276 HUBBLE 1 20580U 90037B 17047.73355324 .00000562 00000-0 23768-4 0 9998 2 20580 28.4703 83.3993 0002572 322.5332 356.4794 15.08671754272072 MET-2/21 1 22782U 93055A 17047.56988627 -.00000036 00000-0 -46293-4 0 9992 2 22782 82.5493 119.3167 0023387 51.8980 56.7437 13.83797533185012 AO-27 1 22825U 93061C 17047.14433509 .00000006 00000-0 20118-4 0 9998 2 22825 98.7963 11.3443 0007889 331.9876 28.0880 14.29985750220109 IO-26 1 22826U 93061D 17047.13318011 -.00000003 00000-0 16580-4 0 9994 2 22826 98.7906 11.4293 0008262 321.5621 38.4971 14.30313342220278 FO-29 1 24278U 96046B 17047.18929030 -.00000026 00000-0 12843-4 0 9990 2 24278 98.5804 306.4422 0349444 290.9155 65.4914 13.53074654 12515 NOAA-15 1 25338U 98030A 17047.51164776 .00000010 00000-0 23132-4 0 9993 2 25338 98.7851 58.1642 0010363 191.5758 168.5184 14.25777443975813 GO-32 1 25397U 98043D 17047.09667191 -.00000002 00000-0 17911-4 0 9994 2 25397 98.5979 352.0677 0001644 36.5257 323.6033 14.23614909966569 ISS 1 25544U 98067A 17047.88638889 .00002465 00000-0 44109-4 0 9996 2 25544 51.6432 278.0086 0007104 197.0237 344.4347 15.54377231 43043 NO-44 1 26931U 01043C 17047.21836441 -.00000046 00000-0 13998-4 0 9992 2 26931 67.0512 43.3080 0007169 280.9208 79.1086 14.30446766803041 SO-50 1 27607U 02058C 17047.54738753 .00000022 00000-0 23769-4 0 9993 2 27607 64.5558 134.2053 0038448 151.5565 208.7647 14.75283155761313 CO-55 1 27844U 03031E 17047.54542173 .00000044 00000-0 39892-4 0 9995 2 27844 98.6921 58.2967 0009334 342.6698 17.4160 14.22014844707177 CO-57 1 27848U 03031J 17047.01995760 .00000023 00000-0 30384-4 0 9999 2 27848 98.7015 57.9849 0009436 353.6854 6.4203 14.21632351706982 RS-22 1 27939U 03042A 17047.90833875 .00000145 00000-0 34570-4 0 9994 2 27939 97.9189 196.6634 0011828 245.2797 276.6391 14.66521157715685 NOAA-18 1 28654U 05018A 17047.54904572 .00000017 00000-0 34640-4 0 9993 2 28654 99.1915 66.7617 0015024 52.7790 307.4749 14.12325134605232 CO-58 1 28895U 05043F 17047.14734482 .00000153 00000-0 38317-4 0 9991 2 28895 97.8492 215.1185 0017335 162.6288 197.5512 14.63341581602787 CO-65 1 32785U 08021C 17047.52378117 .00000230 00000-0 30865-4 0 9990 2 32785 97.5786 77.2367 0012609 202.0648 158.0027 14.87795508476959 AAUSAT2 1 32788U 08021F 17047.05650145 .00000732 00000-0 74306-4 0 9990 2 32788 97.5743 87.5212 0012424 168.8536 191.2962 14.93681499477596 DO-64 1 32789U 08021G 17047.18967338 .00001340 00000-0 10018-3 0 9995 2 32789 97.5743 107.9104 0013742 149.3037 210.8996 15.04384263478675 CO-66 1 32791U 08021J 17047.51095054 .00000386 00000-0 45388-4 0 9990 2 32791 97.5771 81.2078 0013340 188.2830 171.8170 14.90089606477171 RS-30 1 32953U 08025A 17047.87797556 .00000008 00000-0 -12459-4 0 9994 2 32953 82.5052 314.4799 0018408 185.9034 174.1831 12.43074582396474 PRISM 1 33493U 09002B 17047.86826069 .00000577 00000-0 57857-4 0 9992 2 33493 98.1850 285.1136 0016647 118.1144 242.1766 14.95454158437799 NOAA-19 1 33591U 09005A 17047.53689938 .00000123 00000-0 91807-4 0 9990 2 33591 99.0770 12.7519 0013011 250.7242 109.2521 14.12153368413628 TISAT-1 1 36799U 10035E 17047.55882391 .00000440 00000-0 51455-4 0 9995 2 36799 98.0466 167.9760 0012451 9.6069 350.5384 14.90225415357813 JUGNU 1 37839U 11058B 17047.20179043 .00000316 00000-0 26602-4 0 9990 2 37839 19.9616 104.0597 0018780 290.2528 94.5693 14.12571419276570 SRMSAT 1 37841U 11058D 17047.53567354 .00000320 00000-0 30709-4 0 9993 2 37841 19.9715 141.2360 0011699 195.4806 287.8621 14.10564780276222 AO-71 1 37854U 11061E 17047.02977111 .00001041 00000-0 64039-4 0 9995 2 37854 101.7083 218.9956 0168893 73.4239 288.5446 15.03611221288728 HRBE 1 37855U 11061F 17047.15548024 .00001251 00000-0 73903-4 0 9990 2 37855 101.7203 217.0710 0182058 78.8217 283.3399 15.02562577288611 ALMASAT-1 1 38078U 12006B 17047.54306137 .00012476 34973-5 16028-3 0 9994 2 38078 69.4399 95.6797 0329972 108.1987 255.5401 15.16200550266468 HORYU-2 1 38340U 12025D 17047.49705901 .00000241 00000-0 43740-4 0 9991 2 38340 98.3739 47.1901 0010847 320.7878 39.2543 14.75251173255493 RS-40 1 38735U 12041C 17047.83663936 -.00000002 00000-0 -83692-4 0 9993 2 38735 82.4741 39.2239 0015717 292.5221 67.4194 12.42573190206740 BEESAT-3 1 39134U 13015E 17047.88383147 .00001143 00000-0 66637-4 0 9992 2 39134 64.8676 254.6056 0027943 301.9135 57.9273 15.17266722211224 BEESAT-2 1 39136U 13015G 17047.03675689 .00000721 00000-0 49007-4 0 9999 2 39136 64.8690 266.3924 0026436 300.0958 59.7546 15.14657795210925 ZACUBE-1 1 39417U 13066B 17047.19440118 .00000187 00000-0 30457-4 0 9996 2 39417 97.6469 95.2009 0058182 306.4506 53.1352 14.80617982174872 TRITON-1 1 39427U 13066M 17047.49733439 .00000216 00000-0 42690-4 0 9996 2 39427 97.6462 70.8971 0114826 16.0865 344.3938 14.67377429173343 GOMX-1 1 39430U 13066Q 17047.86670215 .00000277 00000-0 59037-4 0 9993 2 39430 97.6639 56.0933 0153360 63.2977 298.3830 14.58785568172391 LO-74 1 39440U 13066AA 17047.05182082 .00000172 00000-0 31481-4 0 9992 2 39440 97.6438 85.2106 0080137 334.2516 25.4714 14.75364413174232 AO-73 1 39444U 13066AE 17047.77341940 .00000268 00000-0 40084-4 0 9990 2 39444 97.6483 96.6545 0057308 301.6551 57.9080 14.81331155173789 SPROUT 1 39770U 14029E 17047.84344925 .00000512 00000-0 64819-4 0 9990 2 39770 97.8703 148.4530 0009297 11.8943 348.2489 14.85977874148269 DUCHIFAT-1 1 40021U 14033M 17046.79900200 .00000425 00000-0 50355-4 0 9996 2 40021 97.9238 319.7668 0012902 347.6046 12.4852 14.89720108144529 NANOSATCBR1 1 40024U 14033Q 17047.21741174 .00000357 00000-0 43871-4 0 9999 2 40024 97.9204 319.2570 0012172 347.3504 12.7406 14.89069681144549 EO-79 1 40025U 14033R 17047.20056296 .00000253 00000-0 33396-4 0 9999 2 40025 97.9191 318.4541 0012374 349.6694 10.4266 14.88301344144490 DTUSAT-2 1 40030U 14033W 17046.97353676 .00000265 00000-0 35014-4 0 9992 2 40030 97.9161 317.4609 0011701 344.7676 15.3186 14.87927104144421 EO-80 1 40032U 14033Y 17047.21217756 .00000264 00000-0 34985-4 0 9995 2 40032 97.9168 317.7066 0011643 344.4417 15.6440 14.87861557144453 ANTELSAT 1 40034U 14033AA 17047.21856636 .00000206 00000-0 38674-4 0 9998 2 40034 97.8761 294.7809 0058430 323.0756 36.6436 14.73607296143119 VELOX-1 1 40057U 14034E 17047.85151765 .00000321 00000-0 53174-4 0 9995 2 40057 98.1871 146.3032 0012451 85.8434 274.4194 14.77000330141996 DAURIA DX 1 1 40071U 14037C 17047.86904878 .00000135 00000-0 24868-4 0 9997 2 40071 98.3297 154.2395 0009886 80.2887 279.9451 14.80959136141161 UKUBE-1 1 40074U 14037F 17047.89188819 .00000336 00000-0 48120-4 0 9992 2 40074 98.3367 157.5061 0005888 83.1942 276.9938 14.83374763141347 HODOYOSHI-1 1 40299U 14070B 17047.82661603 .00000667 00000-0 32238-4 0 9998 2 40299 97.4114 132.3761 0014117 147.7773 328.8283 15.21985620126636 CHUBUSAT-1 1 40300U 14070C 17047.87272995 .00000825 00000-0 40620-4 0 9998 2 40300 97.4047 129.9449 0021253 158.2181 294.1003 15.20559124126504 QSAT-EOS 1 40301U 14070D 17047.89724855 .00001565 00000-0 69741-4 0 9995 2 40301 97.3985 129.7243 0028665 156.7086 335.5794 15.22564202126520 FIREBIRD FU3 1 40377U 15003B 17046.94385686 .00001384 00000-0 63717-4 0 9991 2 40377 099.1117 206.8587 0139023 044.1798 317.0432 15.14563750112649 FIREBIRD FU4 1 40378U 15003C 17047.86265300 .00001623 00000-0 73757-4 0 9995 2 40378 99.1121 207.9868 0139174 41.0679 320.0925 15.14589465112798 GRIFEX 1 40379U 15003D 17047.85933217 .00001274 00000-0 61923-4 0 9998 2 40379 99.1128 206.2598 0144561 47.1737 314.1532 15.12344398112695 NO-84 1 40654U 15025D 17047.37356102 .00009111 00000-0 18270-3 0 03647 2 40654 054.9979 055.6813 0187737 323.3943 035.4431 15.30829937061376 NO-83 1 40655U 15025E 17047.38001104 .00017022 00000-0 28550-3 0 04023 2 40655 054.9845 038.5930 0161323 333.1393 026.1373 15.38711998061591 DEORBITSAIL 1 40719U 15032E 17047.51894669 .00000411 00000-0 67175-4 0 9995 2 40719 97.9941 302.6997 0016605 167.0083 193.1557 14.75906185 86529 NUDT-PHONESAT 1 40900U 15049B 17047.75517503 .00002560 00000-0 12677-3 0 9993 2 40900 97.4452 57.4424 0012700 287.9178 72.0671 15.18623262 78176 XW-2A 1 40903U 15049E 17047.78876450 .00002355 00000-0 65019-4 0 9999 2 40903 97.4324 71.9910 0014611 345.1005 14.9808 15.38032394 79133 XW-2C 1 40906U 15049H 17047.85297891 .00000802 00000-0 47367-4 0 9997 2 40906 97.4553 55.7712 0013726 271.6713 88.2947 15.14257513 78026 XW-2D 1 40907U 15049J 17047.84386848 .00000867 00000-0 50783-4 0 9995 2 40907 97.4522 55.5569 0013086 269.7433 90.2299 15.14342302 78021 LILACSAT-2 1 40908U 15049K 17047.85711481 .00000431 00000-0 28096-4 0 9991 2 40908 97.4623 55.4506 0014635 266.4346 93.5211 15.12948752 77974 XW-2F 1 40910U 15049M 17047.84502405 .00001256 00000-0 70497-4 0 9995 2 40910 97.4546 56.0577 0013975 267.6818 92.2814 15.15093234 77939 XW-2B 1 40911U 15049N 17047.84722140 .00000841 00000-0 49407-4 0 9992 2 40911 97.4567 55.8734 0012986 270.0613 89.9131 15.14311165 77926 DCBB 1 40912U 15049P 17047.93097479 .00001297 00000-0 68636-4 0 9994 2 40912 97.4522 57.6343 0014053 259.6689 162.2001 15.17144391 78051 TW-1C 1 40926U 15051B 17047.86912302 .00004924 00000-0 12276-3 0 9993 2 40926 97.2455 88.4247 0010811 241.9882 237.3947 15.40626084 78380 TW-1A 1 40928U 15051D 17047.86744506 .00002343 00000-0 71122-4 0 9993 2 40928 97.2416 85.8264 0011208 272.1484 209.4802 15.35045468 78233 IO-86 1 40931U 15052B 17047.67283257 .00000678 00000-0 53154-5 0 9993 2 40931 6.0017 12.0316 0013855 339.5920 20.3745 14.76510895 75121 GomX-3 1 40949U 98067HA 16292.18357804 .08527750 12374-4 77882-3 0 9992 2 40949 51.6055 106.7696 0006699 286.1344 73.8944 16.38002265 59645 LQSat 1 40958U 15057A 17047.87307280 .00000027 00000-0 12071-4 0 9992 2 40958 97.9894 125.2333 0019614 90.7579 269.5863 14.72942702 73402 AO-85 1 40967U 15058D 17047.10786537 .00000189 00000-0 41066-4 0 04018 2 40967 064.7742 226.1193 0175925 122.7752 239.0441 14.75314216059255 ATHENOXAT-1 1 41168U 15077C 17047.88547712 .00002110 00000-0 83297-4 0 9998 2 41168 14.9912 327.9992 0012339 148.5593 278.2167 15.11097883 64817 ChubuSat-2 1 41338U 16012B 17046.68405004 .00000426 00000-0 26808-4 0 9994 2 41338 31.0028 163.8800 0014117 297.0503 62.8691 14.99642423 54736 ChubuSat-3 1 41339U 16012C 17047.49434763 .00000347 00000-0 20489-4 0 9990 2 41339 31.0108 158.0821 0013948 311.4854 48.4585 14.99855636 54831 Horyu-4 1 41340U 16012D 17047.51775823 .00000644 00000-0 43146-4 0 9995 2 41340 31.0049 156.1919 0014420 318.7138 41.2407 15.00434799 54879 OUFTI-1 1 41458U 16025C 17046.93543552 .00002517 00000-0 14116-3 0 9991 2 41458 098.1991 077.5168 0173458 335.0145 024.3004 15.02556229044372 e-st@r-II 1 41459U 16025D 17046.87878485 .00001930 00000-0 10899-3 0 9993 2 41459 98.1994 77.4382 0175455 335.4092 23.8839 15.02437791 44357 AAUSAT4 1 41460U 16025E 17047.87103620 .00002692 00000-0 15075-3 0 9995 2 41460 98.1921 78.5386 0168802 331.1176 28.0793 15.03110213 44511 MinXSS 1 41474U 98067HU 17047.76342664 .00040375 00000-0 23613-3 0 9994 2 41474 51.6439 257.3143 0000761 282.7834 77.3082 15.77935454 43254 CADRE 1 41475U 98067HV 17003.74787607 .12518598 12537-4 55989-3 0 9998 2 41475 51.6110 110.0165 0004040 312.3134 47.7551 16.43344525 36494 NODES 1 1 41477U 98067HX 17047.18476099 .00025126 00000-0 21303-3 0 9994 2 41477 51.6342 266.1334 0000742 312.6120 47.4814 15.69511159 42994 NODES 2 1 41478U 98067HY 17047.83719880 .00028195 00000-0 24001-3 0 9992 2 41478 51.6347 262.9887 0000695 319.0337 41.0608 15.69343726 43091 LO-87 1 41557U 16033B 17047.75088216 .00001392 00000-0 55962-4 0 9997 2 41557 97.4731 127.2572 0016040 74.6210 285.6799 15.26535292 40057 NuSat2 1 41558U 16033C 17047.77411458 .00001458 00000-0 58720-4 0 9996 2 41558 97.4757 127.3139 0015490 73.3385 286.9552 15.26410429 40058 Lapan A3 1 41603U 16040E 17047.85318791 .00000089 00000-0 74637-5 0 9995 2 41603 97.4777 111.1711 0014762 128.9664 356.0941 15.19260610 36385 Swayam 1 41607U 16040J 17047.17205923 .00001333 00000-0 64577-4 0 9990 2 41607 97.4768 110.5869 0015797 135.4334 224.8174 15.20198757 36218 Pratham 1 41783U 16059A 17047.84228482 .00000053 00000-0 19873-4 0 9991 2 41783 98.1837 110.3648 0033859 176.0054 184.1425 14.62804651 21000 AlSat 1N 1 41789U 16059G 17047.86163925 .00000084 00000-0 25183-4 0 9994 2 41789 98.1830 110.6541 0028703 170.2137 189.9613 14.64007543 21003 ScatSat 1 41790U 16059H 17047.09710886 .00000013 00000-0 14080-4 0 9991 2 41790 98.0830 102.1623 0011929 154.0999 206.0796 14.50093774 20715 TY-1 1 41844U 16066D 17047.75010153 -.00000070 00000-0 00000 0 0 9998 2 41844 97.4065 56.7490 0014761 305.9547 101.5091 15.21680533 15026 CAS-2T 1 41845U 16066E 17047.71913494 -.00000076 00000-0 00000 0 0 9991 2 41845 98.7798 60.4456 0365803 245.6950 110.5630 14.37700018 14184 Pegasus-1 1 41846U 16066F 17047.70797193 -.00000076 00000-0 00000 0 0 9997 2 41846 98.7825 60.3307 0368762 246.4434 109.7616 14.36878460 14172 STARS-C 1 41895U 98067KR 17047.17062517 .00010810 00000-0 15887-3 0 9997 2 41895 51.6497 281.1039 0005980 206.2388 153.8296 15.56037230 9113 BY70-1 1 41909U 16083C 17047.99866187 .04217676 24571-5 87756-3 0 9997 2 41909 97.5527 130.9639 0040258 180.8615 179.4875 16.28483481 8047 OBJECT 41930 1 41930U 98067KS 17036.82401924 .10543534 11630-4 66545-2 0 9992 2 41930 51.6370 330.4291 0018165 124.4217 237.6627 16.16537350 3109 Tancredo 1 1 41931U 98067KT 17047.17977438 .00020382 00000-0 28607-3 0 9994 2 41931 51.6537 281.1646 0010459 175.9622 184.1456 15.56652184 4686 ITF-2 1 41932U 98067KU 17046.93588122 .00008781 00000-0 13269-3 0 9993 2 41932 051.6429 282.5396 0008079 173.2737 186.8350 15.55544819004649 EGG 1 41933U 98067KV 17038.19825588 .00015666 00000-0 23254-3 0 9998 2 41933 051.6446 326.1788 0007720 144.1346 216.0147 15.55365472003289 OBJECT 41934 1 41934U 98067KW 17047.45218298 .00050256 00000-0 71747-3 0 9996 2 41934 51.6429 279.9930 0009234 181.8327 178.3062 15.55716369 4815 AOBA-V3LOX3 1 41935U 98067KX 17047.90101462 .00008745 00000-0 13253-3 0 9995 2 41935 51.6438 277.7349 0007231 175.9210 184.1841 15.55477047 4891 TuPOD 1 41936U 98067KY 17047.88745714 .00025676 00000-0 35681-3 0 9998 2 41936 51.6444 277.6466 0009799 183.1236 176.9724 15.56776373 4274 OSNSAT 1 41939U 98067KZ 17047.05564948 .00015571 00000-0 22382-3 0 9995 2 41939 51.6514 281.8451 0010066 173.9846 186.1268 15.56227249 4010 /EX